Terminal Aerodrome Forecast
Issued by NWS Indianapolis, IN

Home | Current Version | Previous Version | Text Only | Print | Product List | Glossary On
Versions: 1 2 3 4 5 6 7 8 9 10 11 12 13 14 15 16 17 18 19 20 21 22 23 24 25 26 27 28
000
FTUS43 KIND 281700
TAFIND
TAF
KIND 281720Z 2818/2924 17011KT P6SM SCT080 BKN120
     FM291500 20015KT P6SM BKN030=

USA.gov is the U.S. government's official web portal to all federal, state and local government web resources and services.